Content
SEND FEEDBACK

Daily
Averages
Monthly
Summary
Greece

IOANNINA, GREECE


Home > Europe > Greece
Elevation: 1588 feet     Latitude: 39 40N     Longitude: 020 51E

WEATHER
 
SELECT A DAY
Number of Records: 282,904;   Date Range: 7/1/96 - 7/9/14
 
SHARE

PRINT THIS DATA

[ ← Previous Day ]
WEATHER ALMANAC - JUNE 19, 2013
[ Next Day → ]
[ °C ]   °F
Weather ElementAverageHighLow
Temperature78.1 °F95 °F (2:50 pm)59 °F (6:20 am)
Dewpoint55.8 °F59 °F (7:50 am)50 °F (4:50 pm)
Humidity52.7 %94 % (6:20 am)22 % (4:50 pm)
Barometer30.02 in30.06 in (12:50 am)29.95 in (5:50 pm)
Wind Speed2.7 mph10.4 mph (5:20 pm)
Weather ElementAverage
Visibility6.2 mi
Wind DirectionENE (59.1 °)

Weather ElementTotal
Precipitation---
Cooling Degree Days12 (Base 65)
Growing Degree Days27 (Base 50)
Averaged from 43 records on June 19, 2013
WEATHER CONDITIONS BREAKOUT
WIND DIRECTION BREAKOUT
WEATHER BY HOUR - JUNE 19, 2013
[ °C ]   °F
Local TimeTemperatureDewpointHumidityBarometerVisibilityWind DirectionWind SpeedGust SpeedPrecipitationEventsConditions
12:50 AM68.0 °F57.2 °F68 %30.06 inCalm
1:20 AM68.0 °F57.2 °F68 %30.06 inCalm
1:50 AM64.4 °F55.4 °F73 %30.06 inCalm
2:20 AM66.2 °F57.2 °F73 %30.06 inCalm
2:50 AM62.6 °F57.2 °F82 %30.06 inCalm
3:20 AM62.6 °F57.2 °F82 %30.04 inCalm
3:50 AM62.6 °F57.2 °F82 %30.06 inCalm
4:20 AM60.8 °F57.2 °F88 %30.04 inVariable1.2 mph
4:50 AM60.8 °F57.2 °F88 %30.04 inCalm
5:20 AM60.8 °F57.2 °F88 %30.04 inCalm
5:50 AM60.8 °F57.2 °F88 %30.06 inCalm
6:20 AM59.0 °F57.2 °F94 %30.06 inCalm
6:50 AM60.8 °F57.2 °F88 %30.06 inVariable2.3 mph
7:20 AM60.8 °F57.2 °F88 %30.06 inCalm
7:50 AM64.4 °F59.0 °F83 %30.06 inVariable1.2 mph
8:20 AM69.8 °F59.0 °F68 %30.06 inVariable1.2 mph
8:50 AM73.4 °F59.0 °F61 %30.06 inVariable1.2 mph
9:50 AM78.8 °F59.0 °F51 %30.06 inNE (50°)3.5 mphClear
10:50 AM82.4 °F59.0 °F45 %30.04 inNNE (20°)3.5 mphClear
11:20 AM86.0 °F59.0 °F40 %30.04 inNNW (330°)4.6 mphClear
11:50 AM87.8 °F59.0 °F38 %30.04 inNorth (350°)4.6 mphClear
12:20 PM89.6 °F59.0 °F36 %30.04 in6.2 miNorth (360°)5.8 mphPartly Cloudy
12:50 PM91.4 °F55.4 °F29 %30.01 in6.2 miNNE (30°)4.6 mphPartly Cloudy
1:20 PM93.2 °F53.6 °F26 %30.01 in6.2 miSSW (200°)3.5 mphPartly Cloudy
1:50 PM93.2 °F51.8 °F24 %30.01 in6.2 miEast (80°)3.5 mphPartly Cloudy
2:20 PM93.2 °F51.8 °F24 %30.01 in6.2 miEast (90°)4.6 mphPartly Cloudy
2:50 PM95.0 °F53.6 °F25 %29.98 inESE (110°)6.9 mph
3:20 PM95.0 °F51.8 °F23 %29.98 inSE (130°)4.6 mph
3:50 PM95.0 °F51.8 °F23 %29.98 inSE (140°)6.9 mph
4:20 PM95.0 °F51.8 °F23 %29.98 inSE (140°)8.1 mph
4:50 PM95.0 °F50.0 °F22 %29.98 inESE (120°)9.2 mph
5:20 PM95.0 °F50.0 °F22 %29.98 in6.2 miSE (130°)10.4 mphPartly Cloudy
5:50 PM93.2 °F51.8 °F24 %29.95 in6.2 miSE (130°)8.1 mphPartly Cloudy
6:20 PM91.4 °F51.8 °F26 %29.95 in6.2 miSE (130°)8.1 mphPartly Cloudy
6:50 PM91.4 °F51.8 °F26 %29.95 in6.2 miCalmPartly Cloudy
7:50 PM89.6 °F57.2 °F33 %29.98 in6.2 miCalmPartly Cloudy
8:50 PM84.2 °F57.2 °F40 %29.98 in6.2 miCalmPartly Cloudy
9:20 PM80.6 °F55.4 °F42 %29.98 inVariable2.3 mph
9:50 PM77.0 °F57.2 °F50 %30.01 inCalm
10:20 PM78.8 °F55.4 °F44 %30.01 inVariable1.2 mph
10:50 PM77.0 °F55.4 °F47 %30.01 inVariable1.2 mph
11:20 PM71.6 °F57.2 °F60 %30.01 inVariable1.2 mph
11:50 PM71.6 °F57.2 °F60 %30.01 inVariable1.2 mph
Hourly data recorded from LGIO, located miles away from Ioannina, Greece







STORIES FROM OUR PARTNERS